User: anonymous   Login
Location: Unspecified
(0.0000°N, 0.0000°E)
Time: 19:16:49
(UTC+00:00)
Language:

DELFI-N3XT - Orbit

View from above orbital plane
View from above orbital plane
View from above satellite
View from above satellite

Ground track
Ground track

The orbit data is extracted from the following two-line orbital elements,

1 39420U 13066E   18113.19867383  .00000239  00000-0  49821-4 0  9995
2 39420  97.6746 100.6369 0139169 119.2279 242.2924 14.62028580235667
Epoch (UTC): 23 April 2018 04:46:05
Eccentricity: 0.0139169
inclination: 97.6746°
perigee height: 588 km
apogee height: 785 km
right ascension of ascending node: 100.6369°
argument of perigee: 119.2279°
revolutions per day: 14.62028580
mean anomaly at epoch: 242.2924°
orbit number at epoch: 23566

The dashed part of the orbit path shows where the satellite is in the earth's shadow,  

DLR